Location: Newark
(51.3000°N, 178.2000°W)
Time: 01:50:44
(UTC+00:00)

ISS - Pass Details

Date: 17 May 2021
Orbit: 417 x 422 km, 51.6° (Epoch: 15 June)

Event Time Altitude Azimuth Distance (km) Brightness Sun altitude
Rises 09:13:34 0° 239° (WSW) 2,358 0.1 -11.5°
Reaches altitude 10° 09:15:41 10° 234° (SW) 1,498 -0.9 -11.7°
Maximum altitude 09:18:57 51° 157° (SSE) 537 -3.6 -12.0°
Drops below altitude 10° 09:22:15 10° 81° (E) 1,507 -1.2 -12.3°
Sets 09:24:23 0° 76° (ENE) 2,374 -0.1 -12.5°
